Terug naar catalogus

STARLINK-37470

ActiefCommunicatieSSO
NORAD 68820·PAYLOAD·🇺🇸 United States

Gelanceerd Apr 23, 2026 vanaf Vandenberg Space Force Base

Loading…

Volgende Passages (komende 24 uur)

TLE

VersSource: CelesTrak SupGP

Epoch: Sep 14, 2026, 23:02 UTC

1 68820C 26089U   26257.96020833  .00086604  00000+0  26891-2 0  2570
2 68820  97.2849 103.8483 0002221  92.2832 247.7216 15.33385789    17

Volg STARLINK-37470 in realtime met AllMySat

Download on the App Store